Tracking 29892 objects as of 21-Nov-2024
HD Live streaming from Space Station
objects crossing your sky now

DELTA 1 DEB

Track DELTA 1 DEB now!
10-day predictions


NORAD ID: 12189
Int'l Code: 1978-026AE
Perigee: 873.0 km
Apogee: 972.8 km
Inclination: 98.7 °
Period: 103.3 minutes
Semi major axis: 7293 km
RCS: 0.0655 m2 (small)
Launch date: March 5, 1978
Source: United States (US)
Launch site: AIR FORCE WESTERN TEST RANGE (AFWTR)

Note: This is SATELLITE DEBRIS
Your satellite tracking list
Your tracking list is empty




NASA's NSSDC Master Catalog

Two Line Element Set (TLE):
1 12189U 78026AE  24325.00072277  .00000144  00000-0  13726-3 0  9996
2 12189  98.7359 335.4481 0068422 132.8814 282.8155 13.93688205554764
Source of the keplerian elements: AFSPC